User: anonymous   Login
Location: Unspecified
(0.0000°N, 0.0000°E)
Time: 00:47:53
(UTC+02:00)
Language:

YAOGAN 3 - Orbit

View from above orbital plane
View from above orbital plane
View from above satellite
View from above satellite

Ground track
Ground track

The orbit data is extracted from the following two-line orbital elements,

1 32289U 07055A   17178.91718498 +.00000367 +00000-0 +54492-4 0  9996
2 32289 097.9983 180.8410 0001008 083.1210 277.0120 14.80820768520322
Epoch (UTC): 27 June 2017 22:00:44
Eccentricity: 0.0001008
inclination: 97.9983°
perigee height: 626 km
apogee height: 627 km
right ascension of ascending node: 180.8410°
argument of perigee: 83.1210°
revolutions per day: 14.80820768
mean anomaly at epoch: 277.0120°
orbit number at epoch: 52032

The dashed part of the orbit path shows where the satellite is in the earth's shadow,  

DLR